Regional Weather Roundup
Issued by NWS Mt. Holly, NJ

Current Version | Previous Version | Text Only | Print | Product List | Glossary On
Versions: 1 2 3 4 5 6 7 8 9 10 11 12 13 14 15 16 17 18 19 20 21 22 23 24 25 26 27 28 29 30 31 32 33 34 35 36 37 38 39 40 41 42 43 44 45 46 47 48 49 50
000
ASUS41 KPHI 220810
RWRPHI

REGIONAL WEATHER ROUNDUP
NATIONAL WEATHER SERVICE MOUNT HOLLY NJ
300 AM EST SAT NOV 22 2014

NOTE:  "FAIR" INDICATES FEW OR NO CLOUDS BELOW 12,000 FEET WITH NO
SIGNIFICANT WEATHER AND/OR OBSTRUCTIONS TO VISIBILITY.

 * = STATION DOES NOT REPORT PRECIPITATION (E.G. RAIN, SNOW, ETC.)
        OR FOG.

NJZ015>026-220900-
SOUTHERN NEW JERSEY

CITY           SKY/WX    TMP DP  RH WIND       PRES   REMARKS
POMONA         CLEAR     23  12  62 CALM      30.53F
RIO GRANDE*    CLEAR     23  12  63 CALM      30.53F
MILLVILLE      CLEAR     17  12  80 CALM      30.54S
WRIGHTSTOWN    CLEAR     22  12  64 SW2       30.49F
MOUNT HOLLY    CLEAR     20  13  74 CALM      30.52F
TRENTON        CLEAR     23  10  57 SW3       30.50F

$$
NJZ001>014-220900-
NORTHERN NEW JERSEY

CITY           SKY/WX    TMP DP  RH WIND       PRES   REMARKS
SUSSEX         CLEAR     13  10  88 CALM      30.46S
ANDOVER*         N/A     16  13  88 CALM      30.46F
MORRISTOWN       N/A     19  16  86 CALM      30.49S
NEWARK         CLEAR     25  11  56 SW5       30.51R WCI  19
TETERBORO      CLEAR     25  13  60 CALM      30.49F
CALDWELL       CLEAR     19  11  70 CALM      30.50S
SOMERVILLE     CLEAR     15  11  83 CALM      30.50S
ALLAIRE*       CLEAR     25   9  50 W6        30.51R WCI  18
TOMS RIVER*    CLEAR     18  10  73 CALM      30.53S

$$
PAZ043-044-047-054-055-060>062-066>071-220900-
EASTERN PENNSYLVANIA

CITY           SKY/WX    TMP DP  RH WIND       PRES   REMARKS
PHILADELPHIA   CLEAR     25  10  53 W6        30.54F WCI  18
NORTH PHILA    CLEAR     25  10  53 CALM      30.53F
BLUE BELL      CLEAR     21  18  86 CALM      30.49F
DOYLESTOWN     CLEAR     20  11  68 CALM      30.48F
QUAKERTOWN*    CLEAR     16  10  79 CALM      30.49S
POTTSTOWN      CLEAR     18  11  74 CALM      30.51F
LANCASTER      CLEAR     19  11  70 W5        30.51S WCI  12
COATESVILLE    CLEAR     23  10  58 CALM      30.49S
READING        CLEAR     22  12  65 CALM      30.48F
ALLENTOWN      CLEAR     16   8  71 SW6       30.49S WCI   7
MOUNT POCONO   CLEAR     16   8  71 W7        30.35F WCI   6
HAZLETON       CLEAR     19  10  68 CALM      30.41F
WILKES BARRE   CLEAR     21  10  62 SW5       30.42S WCI  15

$$
DEZALL-MDZ008-012-015-019-020-220900-
DELAWARE AND EASTERN MARYLAND

CITY           SKY/WX    TMP DP  RH WIND       PRES   REMARKS
WILMINGTON     CLEAR     23  13  65 CALM      30.54R
DOVER          CLEAR     22  16  75 SW5       30.53R WCI  16
GEORGETOWN     CLEAR     22  14  71 CALM      30.56R
EASTON         CLEAR     24  19  81 CALM      30.59S
PATUXENT       CLEAR     21  14  74 W6        30.56S WCI  13
OCEAN CITY     CLEAR     17  13  84 CALM      30.56R
WALLOPS ISLAND CLEAR     21  14  74 CALM      30.58R
CAMBRIDGE      CLEAR     23  18  80 CALM      30.56S
SALISBURY      CLEAR     21  13  71 CALM      30.57R

$$
PAZ001-021-NYZ056-072-MDZ011-DCZ001-220900-
OTHER NEARBY LOCATIONS

CITY           SKY/WX    TMP DP  RH WIND       PRES   REMARKS
HARRISBURG     CLEAR     20  13  74 CALM      30.50F
STATE COLLEGE  PTCLDY    15   9  76 SW3       30.43R
WILLIAMSPORT   PTCLDY    16  10  77 CALM      30.47F
BINGHAMTON     MOCLDY    17   9  70 SW7       30.33F WCI   8
NEW YORK CITY  CLEAR     31  10  41 W3        30.51S
BALTIMORE      CLEAR     21  14  74 CALM      30.54F
WASHINGTON DC  CLEAR     29  16  58 SW3       30.57S

$$


USA.gov is the U.S. government's official web portal to all federal, state and local government web resources and services.